Flag for U.S.A. Weather past 2 weeks in Boston, Massachusetts, U.S.A.

Now
81 °F

Scattered clouds.


Feels Like: 83 °F
Forecast: 66 / 81 °F
Wind: 17 mph from South

Location: Logan International Airport

Current Time: May 27, 2015 at 12:40:52 PM

Latest Report: May 27, 2015 at 11:54 AM


Visibility: 10 mi

Pressure: 30.13 "Hg

Humidity: 58%

Dew point: 65 °F

Location of BostonLocation

Historic Weather in Boston — Graph

°F

Boston temperature yesterday

Maximum temperature yesterday: 86 °F (at 3:54 PM)
Minimum temperature yesterday: 64 °F (at 5:54 AM)
Average temperature yesterday: 74 °F

Past Weeks' High & Low Weather Summary

 TemperatureHumidityPressure
High86 °F (May 26, 3:54 PM)100% (May 17, 10:54 PM)30.34 "Hg (May 17, 10:54 PM)
Low44 °F (May 23, 5:54 AM)16% (May 22, 3:54 PM)29.62 "Hg (May 12, 4:54 PM)
Average62 °F57%30.08 "Hg
* Reported May 12 10:54 AM — May 27 10:54 AM, Boston, Weather by CustomWeather, © 2015

Note: Actual official high and low records may vary slightly from our data, if they occured in-between our weather recording intervals... More about our weather records

Advertising

Boston weather history for previous 24 hours

 ConditionsComfort  
Time TempWeatherWind HumidityBarometerVisibility
10:54 AM
Wed, May 27
79 °FScattered clouds.10 mph62%30.14 "Hg10 mi
9:54 AM75 °FPartly sunny.14 mph66%30.14 "Hg10 mi
8:54 AM72 °FPartly sunny.12 mph71%30.15 "Hg10 mi
7:54 AM69 °FPartly sunny.13 mph76%30.16 "Hg10 mi
6:54 AM67 °FPartly sunny.15 mph81%30.16 "Hg10 mi
5:54 AM65 °FPassing clouds.13 mph85%30.15 "Hg10 mi
4:54 AM66 °FPassing clouds.14 mph81%30.14 "Hg10 mi
3:54 AM66 °FPassing clouds.13 mph81%30.14 "Hg10 mi
2:54 AM68 °FPassing clouds.14 mph73%30.14 "Hg10 mi
1:54 AM68 °FClear.14 mph73%30.14 "Hg10 mi
12:54 AM69 °FPassing clouds.18 mph73%30.14 "Hg10 mi
11:54 PM
Tue, May 26
70 °FPassing clouds.16 mph73%30.15 "Hg10 mi
10:54 PM72 °FPassing clouds.13 mph68%30.13 "Hg10 mi
9:54 PM74 °FPassing clouds.12 mph62%30.13 "Hg10 mi
8:54 PM76 °FCloudy.18 mph58%30.11 "Hg10 mi
7:54 PM79 °FBroken clouds.18 mph52%30.10 "Hg10 mi
6:54 PM80 °FBroken clouds.18 mph51%30.09 "Hg10 mi
5:54 PM85 °FBroken clouds.17 mph46%30.09 "Hg10 mi
4:54 PM85 °FBroken clouds.16 mph45%30.09 "Hg10 mi
3:54 PM86 °FPartly sunny.18 mph45%30.09 "Hg10 mi
2:54 PM84 °FPartly sunny.17 mph48%30.11 "Hg10 mi
1:54 PM84 °FBroken clouds.21 mph46%30.12 "Hg10 mi
12:54 PM81 °FBroken clouds.18 mph51%30.13 "Hg10 mi
Weather by CustomWeather, © 2015

See weather overviewHow to use our weather pages